TimeCDT,TemperatureF,Dew PointF,Humidity,Sea Level PressureIn,VisibilityMPH,Wind Direction,Wind SpeedMPH,Gust SpeedMPH,PrecipitationIn,Events,Conditions,WindDirDegrees,DateUTC
12:55 AM,26.1,15.1,63,30.26,10.0,SSE,11.5,-,N/A,,Clear,160,2014-03-24 05:55:00
1:55 AM,25.0,14.0,63,30.25,10.0,East,5.8,-,N/A,,Clear,90,2014-03-24 06:55:00
2:55 AM,24.1,15.1,69,30.26,10.0,ENE,5.8,-,N/A,,Clear,70,2014-03-24 07:55:00
3:55 AM,26.1,16.0,66,30.25,10.0,ESE,5.8,-,N/A,,Overcast,110,2014-03-24 08:55:00
4:55 AM,27.0,17.1,66,30.24,10.0,East,5.8,-,N/A,,Overcast,100,2014-03-24 09:55:00
5:27 AM,28.0,18.0,66,30.21,8.0,ENE,8.1,-,0.00,Snow,Light Snow,70,2014-03-24 10:27:00
5:55 AM,27.0,21.0,78,30.24,6.0,East,6.9,-,0.00,Snow,Light Snow,80,2014-03-24 10:55:00
6:46 AM,28.0,21.0,75,30.19,2.5,SE,5.8,-,0.00,Snow,Light Snow,130,2014-03-24 11:46:00
6:55 AM,28.0,21.9,78,30.23,3.0,ESE,5.8,-,0.01,Snow,Light Snow,110,2014-03-24 11:55:00
7:51 AM,28.4,23.0,80,30.21,1.8,SE,5.8,-,0.00,Snow,Light Snow,140,2014-03-24 12:51:00
7:55 AM,28.0,23.0,81,30.25,1.8,SSE,8.1,-,0.00,Snow,Light Snow,160,2014-03-24 12:55:00
8:01 AM,28.9,23.0,78,30.21,1.2,SSE,10.4,-,0.00,Snow,Light Snow,160,2014-03-24 13:01:00
8:05 AM,28.0,23.0,81,30.21,0.8,SSE,10.4,-,0.00,Snow,Light Snow,160,2014-03-24 13:05:00
8:24 AM,28.0,25.0,88,30.21,0.2,South,9.2,-,0.01,Fog-Snow,Snow,170,2014-03-24 13:24:00
8:52 AM,28.4,26.6,93,30.21,1.2,South,6.9,-,0.03,Snow,Light Snow,170,2014-03-24 13:52:00
8:55 AM,28.0,27.0,96,30.26,1.0,South,6.9,-,0.03,Snow,Light Snow,170,2014-03-24 13:55:00
9:03 AM,28.0,28.0,100,30.21,0.5,South,6.9,-,0.01,Fog-Snow,Snow,170,2014-03-24 14:03:00
9:15 AM,28.9,28.0,96,30.22,0.2,South,8.1,-,0.01,Fog-Snow,Snow,180,2014-03-24 14:15:00
9:35 AM,28.9,28.0,96,30.23,1.2,South,9.2,-,0.03,Snow,Light Snow,190,2014-03-24 14:35:00
9:39 AM,28.9,28.0,96,30.23,1.8,SSW,8.1,-,0.03,Snow,Light Snow,200,2014-03-24 14:39:00
9:47 AM,28.9,27.0,92,30.24,2.5,WSW,6.9,-,0.03,Snow,Light Snow,240,2014-03-24 14:47:00
9:55 AM,30.0,27.0,88,30.31,2.0,NNW,9.2,-,0.03,Snow,Light Snow,340,2014-03-24 14:55:00
9:57 AM,30.0,27.0,88,30.26,1.5,NW,8.1,-,0.00,Snow,Light Snow,320,2014-03-24 14:57:00
10:01 AM,28.9,27.0,92,30.26,0.8,NNW,10.4,-,0.00,Snow,Light Snow,330,2014-03-24 15:01:00
10:22 AM,30.0,28.0,92,30.27,1.0,NNW,8.1,-,0.01,Snow,Light Snow,330,2014-03-24 15:22:00
10:29 AM,30.0,28.9,96,30.27,0.5,NNW,8.1,-,0.02,Fog-Snow,Snow,330,2014-03-24 15:29:00
10:43 AM,30.0,28.9,96,30.27,0.8,NNW,4.6,-,0.03,Snow,Light Snow,330,2014-03-24 15:43:00
10:49 AM,30.2,28.4,93,30.26,1.5,NW,4.6,-,0.03,Snow,Light Snow,320,2014-03-24 15:49:00
10:50 AM,30.0,28.9,96,30.31,1.5,NW,3.5,-,0.03,Snow,Light Snow,320,2014-03-24 15:50:00
10:59 AM,30.9,28.9,92,30.26,2.0,Calm,Calm,-,0.00,Snow,Light Snow,0,2014-03-24 15:59:00
11:08 AM,30.0,28.9,96,30.26,1.5,Calm,Calm,-,0.00,Snow,Light Snow,0,2014-03-24 16:08:00
11:17 AM,30.9,30.0,96,30.25,2.0,Calm,Calm,-,0.00,Snow,Light Snow,0,2014-03-24 16:17:00
11:30 AM,30.9,28.9,92,30.25,6.0,SSW,5.8,-,0.00,Snow,Light Snow,210,2014-03-24 16:30:00
11:37 AM,30.9,30.0,96,30.25,8.0,South,4.6,-,0.00,,Overcast,190,2014-03-24 16:37:00
11:55 AM,34.0,30.0,85,30.30,10.0,West,3.5,-,0.00,,Overcast,280,2014-03-24 16:55:00
12:55 PM,37.9,28.9,70,30.29,10.0,North,10.4,-,N/A,,Overcast,350,2014-03-24 17:55:00
1:55 PM,44.1,30.0,58,30.26,10.0,North,18.4,25.3,N/A,,Partly Cloudy,350,2014-03-24 18:55:00
2:55 PM,46.9,24.1,41,30.24,10.0,NNW,23.0,28.8,N/A,,Scattered Clouds,340,2014-03-24 19:55:00
3:55 PM,46.0,21.0,37,30.25,10.0,North,21.9,29.9,N/A,,Partly Cloudy,350,2014-03-24 20:55:00
4:55 PM,46.0,19.0,34,30.23,10.0,North,17.3,28.8,N/A,,Scattered Clouds,360,2014-03-24 21:55:00
5:55 PM,46.0,18.0,33,30.23,10.0,North,19.6,26.5,N/A,,Partly Cloudy,350,2014-03-24 22:55:00
6:55 PM,44.1,18.0,35,30.25,10.0,North,16.1,24.2,N/A,,Clear,350,2014-03-24 23:55:00
7:55 PM,39.0,18.0,43,30.28,10.0,North,11.5,-,N/A,,Clear,360,2014-03-25 00:55:00
8:55 PM,35.1,18.0,50,30.29,10.0,North,9.2,-,N/A,,Clear,360,2014-03-25 01:55:00
9:55 PM,34.0,17.1,50,30.30,10.0,Calm,Calm,-,N/A,,Clear,0,2014-03-25 02:55:00
10:55 PM,32.0,17.1,54,30.31,10.0,WNW,4.6,-,N/A,,Clear,300,2014-03-25 03:55:00
11:55 PM,30.0,17.1,59,30.31,10.0,WNW,5.8,-,N/A,,Mostly Cloudy,300,2014-03-25 04:55:00